Content
SEND FEEDBACK

Daily
Averages
Monthly
Summary
France

LILLE, FRANCE


Home > Europe > France
Elevation: 171 feet     Latitude: 50 34N     Longitude: 003 06E

WEATHER
 
SELECT A DAY
Number of Records: 269,515;   Date Range: 7/1/96 - 8/10/14
 
SHARE

PRINT THIS DATA

[ ← Previous Day ]
WEATHER ALMANAC - MARCH 4, 2013
[ Next Day → ]
[ °C ]   °F
Weather ElementAverageHighLow
Temperature40.5 °F55.4 °F (4:00 pm)30 °F (7:00 am)
Dewpoint31.7 °F37.4 °F (6:00 pm)28 °F (7:00 am)
Humidity72.4 %93 % (2:30 am)42 % (1:00 pm)
Barometer29.98 in30.14 in (1:00 am)29.83 in (8:00 pm)
Wind Speed7.9 mph10.4 mph (9:30 am)
Weather ElementAverage
Visibility3.8 mi
Wind DirectionESE (111.1 °)

Weather ElementTotal
Precipitation---
Heating Degree Days22.3 (Base 65)
Averaged from 47 records on March 4, 2013
WEATHER CONDITIONS BREAKOUT
WIND DIRECTION BREAKOUT
WEATHER BY HOUR - MARCH 4, 2013
[ °C ]   °F
Local TimeTemperatureDewpointHumidityBarometerVisibilityWind DirectionWind SpeedGust SpeedPrecipitationEventsConditions
12:30 AM33.8 °F30.2 °F87 %30.12 in4.3 miEast (90°)8.1 mph
1:00 AM34.0 °F30.0 °F80 %30.14 in4.0 miEast (80°)6.9 mph
1:00 AM33.8 °F30.2 °F87 %30.12 in3.7 miEast (80°)6.9 mph
1:30 AM33.8 °F30.2 °F87 %30.12 in3.7 miEast (90°)6.9 mph
2:00 AM33.8 °F30.2 °F87 %30.12 in3.1 miEast (90°)8.1 mphMist
2:30 AM32.0 °F30.2 °F93 %30.09 in3.1 miEast (100°)9.2 mphMist
3:00 AM32.0 °F28.4 °F87 %30.09 in3.1 miEast (100°)6.9 mphMist
3:30 AM32.0 °F30.2 °F93 %30.09 inEast (90°)6.9 mphMist
4:00 AM32.0 °F28.4 °F87 %30.06 in2.5 miEast (80°)6.9 mphMist
4:30 AM32.0 °F28.4 °F87 %30.06 in2.5 miEast (80°)9.2 mphMist
5:00 AM32.0 °F28.4 °F87 %30.04 in2.5 miEast (80°)8.1 mphMist
5:30 AM32.0 °F28.4 °F87 %30.04 in2.5 miEast (80°)6.9 mphMist
6:00 AM30.2 °F28.4 °F93 %30.04 in2.2 miEast (80°)5.8 mphMist
6:30 AM30.2 °F28.4 °F93 %30.04 in2.2 miEast (80°)4.6 mphMist
7:00 AM30.0 °F28.0 °F89 %30.06 in2.0 miEast (80°)4.6 mphMist
7:00 AM30.2 °F28.4 °F93 %30.04 in1.9 miEast (80°)4.6 mphMist
7:30 AM30.2 °F28.4 °F93 %30.04 in2.5 miENE (70°)8.1 mphMist
8:00 AM30.2 °F28.4 °F93 %30.04 in2.5 miEast (80°)8.1 mphMist
8:30 AM32.0 °F30.2 °F93 %30.04 in2.5 miEast (80°)9.2 mphMist
9:00 AM33.8 °F30.2 °F87 %30.04 in2.8 miEast (80°)9.2 mphMist
9:30 AM35.6 °F30.2 °F81 %30.01 in2.8 miEast (80°)10.4 mphMist
10:00 AM35.6 °F30.2 °F81 %30.01 in3.7 miEast (90°)9.2 mph
10:30 AM37.4 °F30.2 °F75 %30.01 in3.7 miEast (90°)9.2 mph
11:00 AM39.2 °F32.0 °F75 %30.01 in5.0 miEast (100°)8.1 mph
11:30 AM42.8 °F32.0 °F66 %29.98 in5.0 miESE (120°)8.1 mph
12:00 PM44.6 °F32.0 °F61 %29.98 in5.0 miESE (120°)6.9 mph
12:30 PM46.4 °F30.2 °F53 %29.98 in5.0 miESE (120°)9.2 mph
1:00 PM48.0 °F32.0 °F42 %29.97 in6.0 miSE (140°)9.2 mph
1:00 PM48.2 °F32.0 °F54 %29.95 in5.6 miSE (140°)9.2 mph
1:30 PM48.2 °F32.0 °F54 %29.95 in5.6 miSE (130°)8.1 mph
2:00 PM50.0 °F32.0 °F50 %29.92 in5.6 miSSE (150°)10.4 mph
2:30 PM51.8 °F32.0 °F47 %29.92 in5.6 miESE (120°)9.2 mph
3:00 PM51.8 °F33.8 °F50 %29.89 in5.6 miSE (130°)10.4 mph
3:30 PM53.6 °F33.8 °F47 %29.89 inESE (120°)10.4 mphClear
4:00 PM55.4 °F33.8 °F44 %29.86 inESE (120°)9.2 mphClear
4:30 PM55.4 °F35.6 °F47 %29.86 inSE (140°)8.1 mphClear
5:00 PM55.4 °F33.8 °F44 %29.86 inSSE (150°)6.9 mphClear
6:00 PM51.8 °F37.4 °F58 %29.86 inSSE (160°)8.1 mphClear
7:00 PM47.0 °F36.0 °F57 %29.87 in7.0 miSouth (170°)6.9 mph
7:00 PM48.2 °F35.6 °F62 %29.86 inSouth (170°)6.9 mphClear
7:30 PM46.4 °F35.6 °F66 %29.86 inSSE (150°)5.8 mphClear
8:00 PM46.4 °F37.4 °F71 %29.83 inSE (140°)5.8 mphClear
8:30 PM44.6 °F35.6 °F71 %29.83 inSE (130°)8.1 mphClear
9:00 PM46.4 °F35.6 °F66 %29.83 inSE (140°)6.9 mphClear
9:30 PM46.4 °F35.6 °F66 %29.83 inSSE (150°)9.2 mphClear
10:00 PM46.4 °F33.8 °F62 %29.83 inSE (140°)8.1 mphClear
11:00 PM42.8 °F33.8 °F70 %29.83 inSE (140°)8.1 mphClear
Hourly data recorded from LFQQ, located miles away from Lille, France







STORIES FROM OUR PARTNERS